Regional Weather Roundup
Issued by NWS Green Bay, WI

Home | Current Version | Previous Version | Text Only | Print | Product List | Glossary On
Versions: 1 2 3 4 5 6 7 8 9 10 11 12 13 14 15 16 17 18 19 20 21 22 23 24 25 26 27 28 29 30 31 32 33 34 35 36 37 38 39 40 41 42 43 44 45 46 47 48 49 50
000
ASUS43 KGRB 250610
RWRGRB

NORTH-CENTRAL AND NORTHEAST WISCONSIN REGIONAL WEATHER ROUNDUP
NATIONAL WEATHER SERVICE GREEN BAY WI
100 AM CDT SAT APR 25 2015

WIZ005-009-010>012-018-019-250700-
NORTH CENTRAL WISCONSIN

CITY           SKY/WX    TMP DP  RH WIND       PRES   REMARKS
IRONWOOD       CLOUDY    39  25  56 E3        29.92S
MANITOWISH WTR CLOUDY    40  30  68 SE5       29.93F
ARBOR VITAE    CLOUDY    40  31  67 SE6       29.93F
EAGLE RIVER    MOCLDY    39  24  56 SE3       29.95F
LAND O LAKES   CLOUDY    39  30  71 SE3       29.96S
RHINELANDER    CLOUDY    39  27  62 E8        29.95F
PHILLIPS       CLOUDY    40  30  68 SE6       29.91F
ANTIGO         CLOUDY    37  21  53 SE10      29.95F
TOMAHAWK       CLOUDY    38  27  63 CALM      29.94S
MERRILL        CLOUDY    40  24  53 SE8       29.94F
$$

WIZ013-073-250700-
NORTHEAST WISCONSIN

CITY           SKY/WX    TMP DP  RH WIND       PRES   REMARKS
IRON MOUNTAIN  CLOUDY    38  24  57 E3        29.98F
MARINETTE      CLOUDY    37  25  60 NE3       30.01S
OCONTO         CLOUDY    37  28  71 CALM      30.01S
$$

WIZ017-030-035>037-045-250700-
CENTRAL WISCONSIN

CITY           SKY/WX    TMP DP  RH WIND       PRES   REMARKS
MEDFORD        CLOUDY    39  32  77 SE8       29.90F
WAUSAU         CLOUDY    40  26  57 SE9       29.93F
MOSINEE        CLOUDY    37  30  75 E8        29.95S
MARSHFIELD     LGT RAIN  38  34  85 E10       29.91F
WISC RAPIDS    CLOUDY    38  33  82 E10       29.95S
STEVENS POINT  LGT RAIN  35  33  91 E12       29.95F
WAUPACA        RAIN      38  33  82 E7        29.97F
SHAWANO        CLOUDY    41  26  55 E7        29.99F
CLINTONVILLE   CLOUDY    39  25  56 E5        29.98F
$$

WIZ038-039-048-051-250700-
FOX VALLEY

CITY           SKY/WX    TMP DP  RH WIND       PRES   REMARKS
NWS GREEN BAY  CLOUDY    40  24  53 E3        30.00F
APPLETON       CLOUDY    37  30  75 E7        29.97F
OSHKOSH        CLOUDY    39  34  82 E7        29.95F
FOND DU LAC    CLOUDY    39  33  79 E8        29.96F
$$

WIZ022-050-052-250700-
EAST CENTRAL WISCONSIN

CITY           SKY/WX    TMP DP  RH WIND       PRES   REMARKS
STURGEON BAY   CLOUDY    39  18  41 S9        30.03S
MANITOWOC      CLOUDY    39  31  72 NE3       29.99F
SHEBOYGAN      CLOUDY    38  34  85 E5        29.98S
$$

LMZ563-521-522-541>543-250700-
LAKESHORE

STATION/POSITION TIME  TEMP    WIND        PRES    VSBY  WAVE
                       AIR SEA DIR/SP/G                  HT/PER
                 (UTC) (F)     (DEG/KT/KT) (MB)    (MI)  (FT/S)
SHEBOYGAN LKSHOR 0600   39      70/  5/  6 1016.2F
KEWAUNEE LKSHORE 0600   40      CALM  /  2 1015.3F
NORTHPORT PIER   0600   38      90/  7/  9 1016.6S
SISTER BAY LKSHO 0600   39     130/  9/ 13   N/A
CHAMBERS ISLAND  0600   39      30/  4/  8 1016.6S
MENOMINEE LKSHOR 0600   39     360/  5/  6 1017.0S
$$



USA.gov is the U.S. government's official web portal to all federal, state and local government web resources and services.